TimeMDT,TemperatureF,Dew PointF,Humidity,Sea Level PressureIn,VisibilityMPH,Wind Direction,Wind SpeedMPH,Gust SpeedMPH,PrecipitationIn,Events,Conditions,WindDirDegrees,DateUTC
12:56 AM,33.1,30.0,89,29.90,-9999.0,Calm,Calm,-,N/A,,Unknown,0,2013-04-05 06:56:00
1:56 AM,33.1,30.0,89,29.89,-9999.0,Calm,Calm,-,N/A,,Unknown,0,2013-04-05 07:56:00
2:56 AM,36.0,32.0,86,29.86,-9999.0,Variable,3.5,-,N/A,,Unknown,0,2013-04-05 08:56:00
3:56 AM,35.1,32.0,89,29.85,-9999.0,Calm,Calm,-,N/A,,Unknown,0,2013-04-05 09:56:00
4:56 AM,33.1,30.9,92,29.88,-9999.0,Calm,Calm,-,0.02,,Unknown,0,2013-04-05 10:56:00
5:56 AM,32.0,32.0,100,29.89,-9999.0,Calm,Calm,-,0.05,,Unknown,0,2013-04-05 11:56:00
6:56 AM,32.0,30.9,96,29.88,-9999.0,Calm,Calm,-,0.03,,Unknown,0,2013-04-05 12:56:00
7:56 AM,33.1,30.9,92,29.89,-9999.0,Calm,Calm,-,N/A,,Unknown,0,2013-04-05 13:56:00
8:56 AM,33.1,32.0,96,29.86,-9999.0,Calm,Calm,-,0.01,,Unknown,0,2013-04-05 14:56:00
9:56 AM,35.1,33.1,92,29.86,-9999.0,Calm,Calm,-,N/A,,Unknown,0,2013-04-05 15:56:00
10:56 AM,35.1,33.1,92,29.85,-9999.0,Calm,Calm,-,N/A,,Unknown,0,2013-04-05 16:56:00
11:56 AM,37.0,30.9,79,29.83,-9999.0,WSW,9.2,18.4,0.01,,Unknown,250,2013-04-05 17:56:00
12:56 PM,39.0,28.0,65,29.83,-9999.0,West,11.5,28.8,N/A,,Unknown,260,2013-04-05 18:56:00
1:56 PM,39.9,26.1,58,29.81,-9999.0,WSW,9.2,24.2,N/A,,Unknown,240,2013-04-05 19:56:00
2:56 PM,37.0,30.0,76,29.84,-9999.0,WNW,12.7,24.2,0.01,,Unknown,300,2013-04-05 20:56:00
3:56 PM,32.0,28.9,88,29.88,-9999.0,Variable,3.5,-,0.02,,Unknown,0,2013-04-05 21:56:00
4:56 PM,36.0,28.9,76,29.90,-9999.0,West,8.1,-,0.03,,Unknown,280,2013-04-05 22:56:00
5:56 PM,37.0,28.0,70,29.91,-9999.0,Variable,3.5,-,N/A,,Unknown,0,2013-04-05 23:56:00
6:56 PM,36.0,27.0,70,29.93,-9999.0,West,3.5,-,N/A,,Unknown,270,2013-04-06 00:56:00
7:56 PM,33.1,28.0,82,29.95,-9999.0,Calm,Calm,-,N/A,,Unknown,0,2013-04-06 01:56:00
8:56 PM,32.0,27.0,82,29.96,-9999.0,Calm,Calm,-,N/A,,Unknown,0,2013-04-06 02:56:00
9:56 PM,30.0,28.0,92,29.99,-9999.0,Calm,Calm,-,0.01,,Unknown,0,2013-04-06 03:56:00
10:56 PM,30.9,28.9,92,29.99,-9999.0,Variable,6.9,-,0.03,,Unknown,0,2013-04-06 04:56:00
11:56 PM,30.9,28.9,92,29.99,-9999.0,Calm,Calm,-,0.06,,Unknown,0,2013-04-06 05:56:00